MIDAS 5 DEB, 273

Orbit data source: Space-Track

MIDAS 5 DEB, 273 is space debris in LEO originally from a launch on Mon, 09 Apr 1962 UTC launched from the Air Force Western Test Range (AFWTR). Debris objects in space refer to the collection of defunct objects orbiting the Earth. Examples of debris include non-operational satellites, rocket bodies, and fragments generated from explosions, collisions, or faulty payload assembly.

Loading next visibility...
MIDAS 5 DEB details
Identifier
273, 1962-010C
Orbit
LEO
Last TLE update20 hours ago
Origin
Flag of USUSAF SSD (US)
ManufacturerUnknown
MissionSpacecraft
Bus & MotorUnknown
Mass~10 kg wet, ~10 kg dry
Launch date (UTC)
1962-04-09 (63 years ago)
Launch vehicleUnknown
Launch site
Air Force Western Test Range (AFWTR)
Object type
Payload
Rocket body
Debris
Shape & HBRUnknown
Radar Cross SectionMedium (>0.1 m² and <1 m²)

Expand to show TLE details & history

TLE from 20 hours ago
0 MIDAS 5 DEB
1 00273U 62010C   24355.73661643  .00000004  00000-0 -65852-4 0  9991
2 00273  86.6680  16.5383 0321659 169.3274 191.4667  9.43808384160011
Epoch: 2024-12-20T17:40Z
Definitive object data (Epoch: 2024-12-20T17:40:43.659Z)
Latitude-0.00006°
Longitude21.55854°
Altitude3,381.036 km
Speed6.29 km/s
True Right ascension01h 06m 09s
True Declination0° 00' 00"
Sunlit
Object was in daylight at TLE epoch
Visualization TLE readout
Latitude-47.97112°
Longitude17.74831°
Altitude3,340.573 km
Speed6.322 km/s
Apparent Right ascension00h 47m 09s
Apparent Declination-44° 38' 07"
Sunlit
Object is in daylight
Visualization observer readout
Local Sidereal Time12:42:10
Azimuth190.639° SSW
Elevation-85.192°
Doppler factor1
Orbital elements
Apogee altitude3,382.011 km
Perigee altitude2,773.691 km
Semi-major axis9,455.988 km
Eccentricity0.0321659
Inclination86.668°
RAAN16.5383°
Arg. of periapsis169.3274°
True anomaly190.76178°
Mean anomaly191.4667°
Eccentric anomaly191.11152°
Mean motion2.36038 °/min
BSTAR-0.000065852
Orbital period152.52 mins
Loading maneuver chart data...
Loading historical data...
Loading historical data...
Loading historical data...
Loading historical data...
Loading historical data...
Loading historical data...
Loading historical data...

MIDAS 5 DEB Visibility forecast

Observer location: undefined°, undefined

Span
Click to sort rows by Start time (UTC) header in descending order
Start Az.
Max El. time (UTC)
Max El. Az.
Max El.
End time (UTC)
End Az.
27 mins2024-12-21 14:47:10.631Z350.056° N2024-12-21 15:01:10.631Z279.104° WNW37.753°2024-12-21 15:14:10.631Z211.966° SW
28 mins2024-12-22 00:17:10.631Z133.412° SE2024-12-22 00:31:10.631Z74.741° E32.851°2024-12-22 00:45:10.631Z13.26° NNE
32 mins2024-12-22 02:47:10.631Z199.075° SSW2024-12-22 03:03:10.631Z279.406° WNW41.599°2024-12-22 03:19:10.631Z358.476° N
11 mins2024-12-22 05:36:10.631Z289.68° WNW2024-12-22 05:41:10.631Z308.385° NW12.815°2024-12-22 05:47:10.631Z331.239° NNW
20 mins2024-12-22 11:10:10.631Z18.852° NNE2024-12-22 11:19:10.631Z60.099° ENE21.648°2024-12-22 11:30:10.631Z111.202° ESE
|